Weather in San Jose de Buenavista

Philippines     10°45′23″N   121°56′34″E
temp.,
°C
wind,
m/s
gust,
m/s
humid.,
%
clouds,
%
prec.,
mm/h
press.,
hPa
HPBL,
m
17 april, sat
sat1723:00+26e1181100 0.0 101127
02:00+25ne1281100 0.0 100952
05:00+25ene1180100 0.1 100932
08:00+28nne1168100 0.2 1010280
11:00+29nnw2263100 0.0 1010883
14:00+31nnw5561100 0.5 10081190
17:00+29nnw4568100 0.8 1007701
20:00+26n3680100 1.3 1010338
18 april, sun
sun1823:00+26n3880100 1.6 1010423
02:00+26nnw4782100 3.3 1008512
05:00+25nnw3684100 0.1 1008276
08:00+27n4968100 0.1 1010821
11:00+30nnw6958100 0.0 10091172
14:00+28nnw5868100 0.0 1006910
17:00+27nw4774100 0.0 1006731
20:00+27nnw2574100 0.0 1008254
19 april, mon
mon1923:00+26nnw2473100 0.0 1008182
02:00+25nnw2578100 0.1 1006187
05:00+24nnw2589100 1.9 1007206
08:00+26nw5879100 4.0 1009845
11:00+28wnw6871100 2.4 10081129
14:00+30wnw71061100 3.1 10061439
17:00+28w51071100 0.1 10061203
20:00+27wnw5977100 1.0 1008779
20 april, tue
tue2023:00+25wnw51085100 2.4 1008606
02:00+26wnw5986100 5.3 1005571
05:00+26wnw5986100 3.4 1006606
08:00+26wnw5885100 7.6 1008866
11:00+27w6985100 4.3 1007988
14:00+26w5987100 9.9 1006735
17:00+26w5988100 5.8 1005626
20:00+25wnw4889100 11.3 1008430
21 april, wed
wed2123:00+25wnw5988100 4.2 1008462
02:00+25w51088100 9.1 1007493
05:00+25w51088100 5.2 1007465
08:00+27w5886100 10.1 1009738
11:00+28w5883100 4.1 1008957
14:00+28w5881100 9.3 1006988
17:00+26w4788100 5.0 1006593
20:00+25w4888100 8.3 1008441